CHAMRAN-1 (61072 NORAD) Tracking and Keplerian Element Data

This shows tracking and keplerian element data for the satellite.

Feedback or suggestion? Click here.




ElementValue
Catalog61072
NameCHAMRAN-1
Epoch Orbit431
Epoch Day286.87819048
Epoch Year2024
RAAN246.2488
Inclination64.089
Eccentricity0.0016068
Argument of Perigee291.615
Mean Anonmoly68.3252
Mean Motion15.08185337
Decay Rate0.00014961
L11 61072U 24165B 24286.87819048 .00014961 00000+0 97041-3 0 9995
L22 61072 64.0890 246.2488 0016068 291.6150 68.3252 15.08185337 4319



Live tracking and technical data element details for CHAMRAN-1 (NORAD 61072). CHAMRAN-1 can be tracked NOW for your location showing map with azimuth and elevation plus other details from your city location.







IsCatalogInMostPopularTable: catalog: 61072, numindb: 20
Update: records affected: 1



GetName: 61072 CHAMRAN-1

Hit Count: updated at: Wed, 04 Dec 2024 08:33:25 GMT